| time (UTC) | temp F | wind direction | speed MPH | gust MPH | rain 1hr in | rain 24hr in | rain mn in | humidity % | barometer mb |
| 20260510141840 | 65 | 344 | 4.0 | 9.0 | 0.00 | 0.00 | 0.00 | 66 | 1017.1 |
| 20260510141316 | 65 | 319 | 2.0 | 9.0 | 0.00 | 0.00 | 0.00 | 67 | 1017.1 |
| 20260510140850 | 64 | 248 | 3.0 | 13.0 | 0.00 | 0.00 | 0.00 | 67 | 1017.0 |
| 20260510140346 | 64 | 280 | 3.0 | 13.0 | 0.00 | 0.00 | 0.00 | 73 | 1017.0 |
| 20260510135835 | 63 | 316 | 3.0 | 11.0 | 0.00 | 0.00 | 0.00 | 70 | 1017.0 |
| 20260510135328 | 63 | 245 | 5.0 | 14.0 | 0.00 | 0.00 | 0.00 | 69 | 1017.0 |
| 20260510134901 | 63 | 323 | 6.0 | 14.0 | 0.00 | 0.00 | 0.00 | 72 | 1017.1 |
| 20260510134353 | 62 | 290 | 6.0 | 12.0 | 0.00 | 0.00 | 0.00 | 71 | 1017.1 |
| 20260510133846 | 62 | 326 | 2.0 | 14.0 | 0.00 | 0.00 | 0.00 | 73 | 1017.1 |
| 20260510133323 | 61 | 249 | 6.0 | 14.0 | 0.00 | 0.00 | 0.00 | 71 | 1017.0 |
| 20260510132856 | 62 | 238 | 7.0 | 14.0 | 0.00 | 0.00 | 0.00 | 70 | 1017.2 |
| 20260510132349 | 61 | 339 | 4.0 | 12.0 | 0.00 | 0.00 | 0.00 | 73 | 1017.0 |
| 20260510131842 | 61 | 236 | 5.0 | 13.0 | 0.00 | 0.00 | 0.00 | 71 | 1017.2 |
| 20260510131336 | 61 | 250 | 4.0 | 10.0 | 0.00 | 0.00 | 0.00 | 73 | 1017.1 |
| 20260510130829 | 61 | 54 | 3.0 | 10.0 | 0.00 | 0.00 | 0.00 | 74 | 1017.2 |
| 20260510130402 | 61 | 269 | 5.0 | 11.0 | 0.00 | 0.00 | 0.00 | 73 | 1017.1 |
| 20260510125855 | 60 | 289 | 3.0 | 11.0 | 0.00 | 0.00 | 0.00 | 75 | 1017.1 |
| 20260510125333 | 60 | 259 | 5.0 | 10.0 | 0.00 | 0.00 | 0.00 | 73 | 1017.0 |
| 20260510124902 | 60 | 269 | 4.0 | 9.0 | 0.00 | 0.00 | 0.00 | 75 | 1017.0 |
| 20260510124356 | 60 | 248 | 6.0 | 10.0 | 0.00 | 0.00 | 0.00 | 75 | 1017.0 |
| 20260510123405 | 58 | 230 | 4.0 | 11.0 | 0.00 | 0.00 | 0.00 | 78 | 1017.0 |
| 20260510122857 | 58 | 238 | 5.0 | 11.0 | 0.00 | 0.00 | 0.00 | 79 | 1017.0 |
| 20260510122349 | 57 | 246 | 5.0 | 11.0 | 0.00 | 0.00 | 0.00 | 80 | 1017.0 |
| 20260510121842 | 57 | 244 | 5.0 | 9.0 | 0.00 | 0.00 | 0.00 | 80 | 1016.9 |
| 20260510121320 | 56 | 274 | 3.0 | 13.0 | 0.00 | 0.00 | 0.00 | 81 | 1016.8 |
| 20260510120852 | 56 | 242 | 5.0 | 13.0 | 0.00 | 0.00 | 0.00 | 81 | 1016.6 |
| 20260510115900 | 55 | 306 | 3.0 | 9.0 | 0.00 | 0.00 | 0.00 | 83 | 1016.5 |
| 20260510114827 | 54 | 217 | 2.0 | 11.0 | 0.00 | 0.00 | 0.00 | 84 | 1016.4 |
| 20260510114400 | 54 | 276 | 3.0 | 10.0 | 0.00 | 0.00 | 0.00 | 85 | 1016.4 |
| 20260510113853 | 53 | 292 | 5.0 | 10.0 | 0.00 | 0.00 | 0.00 | 86 | 1016.3 |
| 20260510113346 | 53 | 278 | 3.0 | 8.0 | 0.00 | 0.00 | 0.00 | 88 | 1016.2 |
| 20260510112821 | 52 | 239 | 2.0 | 6.0 | 0.00 | 0.00 | 0.00 | 89 | 1016.3 |
| 20260510112356 | 52 | 308 | 3.0 | 5.0 | 0.00 | 0.00 | 0.00 | 89 | 1016.2 |
| 20260510110839 | 50 | 210 | 2.0 | 4.0 | 0.00 | 0.00 | 0.00 | 92 | 1016.1 |
| 20260510110332 | 50 | 297 | 2.0 | 6.0 | 0.00 | 0.00 | 0.00 | 92 | 1016.0 |
| 20260510105906 | 50 | 273 | 2.0 | 6.0 | 0.00 | 0.00 | 0.00 | 92 | 1016.0 |
| 20260510105359 | 49 | 253 | 1.0 | 4.0 | 0.00 | 0.00 | 0.00 | 93 | 1015.9 |
| 20260510104835 | 49 | 299 | 1.0 | 4.0 | 0.00 | 0.00 | 0.00 | 93 | 1015.8 |
| 20260510103359 | 49 | 338 | 0.0 | 4.0 | 0.00 | 0.00 | 0.00 | 92 | 1015.6 |
| 20260510102851 | 49 | 313 | 1.0 | 4.0 | 0.00 | 0.00 | 0.00 | 92 | 1015.5 |
| 20260510102344 | 49 | 274 | 0.0 | 1.0 | 0.00 | 0.00 | 0.00 | 92 | 1015.4 |
| 20260510101838 | 49 | 274 | 0.0 | 2.0 | 0.00 | 0.00 | 0.00 | 91 | 1015.3 |
| 20260510101330 | 49 | 274 | 1.0 | 2.0 | 0.00 | 0.00 | 0.00 | 91 | 1015.2 |
| 20260510100904 | 49 | 179 | 0.0 | 3.0 | 0.00 | 0.00 | 0.00 | 92 | 1015.2 |
| 20260510100357 | 50 | 179 | 1.0 | 3.0 | 0.00 | 0.00 | 0.00 | 92 | 1015.1 |
| 20260510095834 | 49 | 249 | 1.0 | 2.0 | 0.00 | 0.00 | 0.00 | 91 | 1015.1 |
| 20260510095407 | 50 | 249 | 0.0 | 3.0 | 0.00 | 0.00 | 0.00 | 91 | 1015.0 |
| 20260510094333 | 50 | 249 | 1.0 | 2.0 | 0.00 | 0.00 | 0.00 | 90 | 1015.0 |
| 20260510093826 | 50 | 249 | 0.0 | 3.0 | 0.00 | 0.00 | 0.00 | 90 | 1015.0 |
| 20260510093400 | 50 | 249 | 1.0 | 3.0 | 0.00 | 0.00 | 0.00 | 90 | 1015.0 |
| 20260510092853 | 50 | 249 | 0.0 | 2.0 | 0.00 | 0.00 | 0.00 | 90 | 1015.0 |
| 20260510092345 | 51 | 249 | 0.0 | 3.0 | 0.00 | 0.00 | 0.00 | 90 | 1014.9 |
| 20260510091821 | 51 | 249 | 0.0 | 3.0 | 0.00 | 0.00 | 0.00 | 90 | 1014.9 |
| 20260510090831 | 51 | 271 | 2.0 | 3.0 | 0.00 | 0.00 | 0.00 | 90 | 1014.6 |
| 20260510090403 | 51 | 237 | 1.0 | 3.0 | 0.00 | 0.00 | 0.00 | 90 | 1014.6 |
| 20260510085331 | 51 | 238 | 2.0 | 4.0 | 0.00 | 0.00 | 0.00 | 91 | 1014.5 |
| 20260510084903 | 51 | 219 | 2.0 | 5.0 | 0.00 | 0.00 | 0.00 | 91 | 1014.5 |
| 20260510083815 | 51 | 270 | 1.0 | 4.0 | 0.00 | 0.00 | 0.00 | 90 | 1014.5 |
| 20260510083405 | 51 | 236 | 2.0 | 4.0 | 0.00 | 0.00 | 0.00 | 91 | 1014.5 |
| 20260510082842 | 51 | 278 | 1.0 | 4.0 | 0.00 | 0.00 | 0.00 | 91 | 1014.4 |
| 20260510080820 | 51 | 288 | 2.0 | 4.0 | 0.00 | 0.00 | 0.00 | 91 | 1014.2 |
| 20260510075404 | 51 | 302 | 1.0 | 4.0 | 0.00 | 0.00 | 0.00 | 92 | 1014.2 |
| 20260510074855 | 51 | 351 | 2.0 | 4.0 | 0.00 | 0.00 | 0.00 | 92 | 1014.2 |
| 20260510073904 | 51 | 272 | 2.0 | 5.0 | 0.00 | 0.00 | 0.00 | 92 | 1014.2 |
| 20260510073341 | 51 | 316 | 2.0 | 4.0 | 0.00 | 0.00 | 0.00 | 92 | 1014.2 |
| 20260510072834 | 51 | 316 | 1.0 | 2.0 | 0.00 | 0.00 | 0.00 | 92 | 1014.2 |
| 20260510072327 | 51 | 316 | 0.0 | 3.0 | 0.00 | 0.00 | 0.00 | 92 | 1014.2 |
| 20260510071820 | 50 | 295 | 1.0 | 2.0 | 0.00 | 0.00 | 0.00 | 92 | 1014.1 |
| 20260510071313 | 50 | 233 | 0.0 | 3.0 | 0.00 | 0.00 | 0.00 | 91 | 1014.1 |
| 20260510070907 | 50 | 233 | 0.0 | 4.0 | 0.00 | 0.00 | 0.00 | 91 | 1014.2 |
| 20260510070359 | 50 | 262 | 0.0 | 4.0 | 0.00 | 0.00 | 0.00 | 91 | 1014.2 |
| 20260510065837 | 50 | 260 | 1.0 | 3.0 | 0.00 | 0.00 | 0.00 | 91 | 1014.1 |
| 20260510065330 | 50 | 260 | 1.0 | 3.0 | 0.00 | 0.00 | 0.00 | 91 | 1014.1 |
| 20260510064820 | 51 | 271 | 0.0 | 2.0 | 0.00 | 0.00 | 0.00 | 91 | 1014.0 |
| 20260510064312 | 51 | 271 | 0.0 | 4.0 | 0.00 | 0.00 | 0.00 | 91 | 1014.1 |
| 20260510063907 | 51 | 271 | 1.0 | 4.0 | 0.00 | 0.00 | 0.00 | 91 | 1014.1 |
| 20260510062835 | 51 | 268 | 0.0 | 7.0 | 0.00 | 0.00 | 0.00 | 91 | 1014.0 |
| 20260510062327 | 51 | 302 | 2.0 | 4.0 | 0.00 | 0.00 | 0.00 | 91 | 1014.0 |
| 20260510061341 | 51 | 240 | 1.0 | 5.0 | 0.00 | 0.00 | 0.00 | 90 | 1014.0 |
| 20260510060834 | 51 | 282 | 0.0 | 5.0 | 0.00 | 0.00 | 0.00 | 91 | 1014.0 |
| 20260510060327 | 51 | 294 | 0.0 | 3.0 | 0.00 | 0.00 | 0.00 | 90 | 1014.0 |
| 20260510055315 | 51 | 292 | 1.0 | 4.0 | 0.00 | 0.00 | 0.00 | 90 | 1014.1 |
| 20260510054828 | 51 | 217 | 0.0 | 3.0 | 0.00 | 0.00 | 0.00 | 89 | 1014.0 |
| 20260510054321 | 51 | 290 | 1.0 | 5.0 | 0.00 | 0.00 | 0.00 | 89 | 1014.0 |
| 20260510053817 | 51 | 271 | 0.0 | 5.0 | 0.00 | 0.00 | 0.00 | 90 | 1014.0 |
| 20260510053331 | 51 | 269 | 3.0 | 5.0 | 0.00 | 0.00 | 0.00 | 90 | 1014.1 |
| 20260510052823 | 51 | 277 | 2.0 | 5.0 | 0.00 | 0.00 | 0.00 | 90 | 1014.1 |
| 20260510052315 | 51 | 236 | 0.0 | 4.0 | 0.00 | 0.00 | 0.00 | 90 | 1014.1 |
| 20260510051829 | 51 | 273 | 1.0 | 4.0 | 0.00 | 0.00 | 0.00 | 89 | 1014.1 |
| 20260510051321 | 51 | 285 | 2.0 | 4.0 | 0.00 | 0.00 | 0.00 | 89 | 1014.1 |
| 20260510050814 | 51 | 222 | 2.0 | 4.0 | 0.00 | 0.00 | 0.00 | 89 | 1014.1 |
| 20260510050327 | 51 | 227 | 2.0 | 4.0 | 0.00 | 0.00 | 0.00 | 89 | 1014.2 |
| 20260510045823 | 51 | 272 | 0.0 | 1.0 | 0.00 | 0.00 | 0.00 | 89 | 1014.1 |
| 20260510045316 | 51 | 262 | 0.0 | 4.0 | 0.00 | 0.00 | 0.00 | 89 | 1014.1 |
| 20260510044829 | 51 | 274 | 1.0 | 4.0 | 0.00 | 0.00 | 0.00 | 89 | 1014.1 |
| 20260510044322 | 51 | 286 | 0.0 | 4.0 | 0.00 | 0.00 | 0.00 | 89 | 1014.0 |
| 20260510043815 | 51 | 243 | 1.0 | 6.0 | 0.00 | 0.00 | 0.00 | 89 | 1014.1 |
| 20260510043328 | 51 | 242 | 1.0 | 6.0 | 0.00 | 0.00 | 0.00 | 88 | 1014.1 |
| 20260510042820 | 51 | 290 | 1.0 | 5.0 | 0.00 | 0.00 | 0.00 | 88 | 1014.1 |
| 20260510042313 | 51 | 230 | 1.0 | 5.0 | 0.00 | 0.00 | 0.00 | 89 | 1014.2 |
| 20260510041830 | 51 | 233 | 1.0 | 4.0 | 0.00 | 0.00 | 0.00 | 89 | 1014.1 |
| 20260510041323 | 51 | 238 | 0.0 | 3.0 | 0.00 | 0.00 | 0.00 | 88 | 1014.1 |
| 20260510040318 | 51 | 290 | 1.0 | 6.0 | 0.00 | 0.00 | 0.00 | 89 | 1014.0 |
| 20260510035852 | 51 | 280 | 2.0 | 6.0 | 0.00 | 0.00 | 0.00 | 89 | 1014.0 |
| 20260510035343 | 51 | 274 | 0.0 | 3.0 | 0.00 | 0.00 | 0.00 | 88 | 1014.0 |
| 20260510033812 | 50 | 240 | 1.0 | 6.0 | 0.00 | 0.00 | 0.00 | 89 | 1013.9 |
| 20260510033406 | 50 | 240 | 2.0 | 6.0 | 0.00 | 0.00 | 0.00 | 89 | 1014.0 |
| 20260510032859 | 50 | 252 | 2.0 | 3.0 | 0.00 | 0.00 | 0.00 | 89 | 1014.0 |
| 20260510032336 | 50 | 280 | 1.0 | 3.0 | 0.00 | 0.00 | 0.00 | 89 | 1013.9 |
| 20260510031828 | 50 | 273 | 0.0 | 4.0 | 0.00 | 0.00 | 0.00 | 89 | 1013.9 |
| 20260510031402 | 50 | 273 | 1.0 | 4.0 | 0.00 | 0.00 | 0.00 | 90 | 1013.9 |
| 20260510030330 | 50 | 242 | 0.0 | 3.0 | 0.00 | 0.00 | 0.00 | 89 | 1013.9 |
| 20260510025822 | 50 | 242 | 0.0 | 3.0 | 0.00 | 0.00 | 0.00 | 89 | 1014.0 |
| 20260510025314 | 49 | 242 | 0.0 | 2.0 | 0.00 | 0.00 | 0.00 | 89 | 1014.0 |
| 20260510024906 | 49 | 242 | 0.0 | 1.0 | 0.00 | 0.00 | 0.00 | 88 | 1014.1 |
| 20260510024343 | 50 | 242 | 0.0 | 1.0 | 0.00 | 0.00 | 0.00 | 88 | 1014.1 |
| 20260510023836 | 50 | 242 | 0.0 | 1.0 | 0.00 | 0.00 | 0.00 | 86 | 1014.0 |
| 20260510023329 | 50 | 242 | 0.0 | 0.0 | 0.00 | 0.00 | 0.00 | 87 | 1014.0 |
| 20260510022822 | 50 | 242 | 0.0 | 0.0 | 0.00 | 0.00 | 0.00 | 87 | 1013.9 |
| 20260510022316 | 50 | 242 | 0.0 | 1.0 | 0.00 | 0.00 | 0.00 | 86 | 1013.8 |
| 20260510021343 | 50 | 242 | 0.0 | 1.0 | 0.00 | 0.00 | 0.00 | 85 | 1013.8 |
| 20260510020836 | 50 | 242 | 0.0 | 2.0 | 0.00 | 0.00 | 0.00 | 85 | 1013.7 |
| 20260510020313 | 51 | 242 | 1.0 | 2.0 | 0.00 | 0.00 | 0.00 | 83 | 1013.5 |
| 20260510015847 | 51 | 242 | 1.0 | 2.0 | 0.00 | 0.00 | 0.00 | 82 | 1013.4 |
| 20260510015340 | 52 | 242 | 1.0 | 2.0 | 0.00 | 0.00 | 0.00 | 81 | 1013.3 |
| 20260510014830 | 52 | 242 | 0.0 | 0.0 | 0.00 | 0.00 | 0.00 | 81 | 1013.2 |
| 20260510014402 | 53 | 242 | 0.0 | 1.0 | 0.00 | 0.00 | 0.00 | 80 | 1013.2 |
| 20260510013855 | 53 | 242 | 0.0 | 2.0 | 0.00 | 0.00 | 0.00 | 80 | 1013.1 |
| 20260510012904 | 53 | 242 | 0.0 | 2.0 | 0.00 | 0.00 | 0.00 | 80 | 1012.7 |
| 20260510012356 | 54 | 242 | 0.0 | 1.0 | 0.00 | 0.00 | 0.00 | 79 | 1012.7 |
| 20260510011834 | 54 | 242 | 0.0 | 1.0 | 0.00 | 0.00 | 0.00 | 79 | 1012.8 |
| 20260510011327 | 54 | 242 | 0.0 | 1.0 | 0.00 | 0.00 | 0.00 | 78 | 1012.7 |
| 20260510010819 | 54 | 242 | 0.0 | 1.0 | 0.00 | 0.00 | 0.00 | 77 | 1012.6 |
| 20260510005848 | 55 | 242 | 0.0 | 2.0 | 0.00 | 0.00 | 0.00 | 75 | 1012.5 |
| 20260510005341 | 56 | 242 | 1.0 | 2.0 | 0.00 | 0.00 | 0.00 | 75 | 1012.5 |
| 20260510004828 | 56 | 242 | 1.0 | 4.0 | 0.00 | 0.00 | 0.00 | 74 | 1012.4 |
| 20260510004401 | 56 | 242 | 2.0 | 5.0 | 0.00 | 0.00 | 0.00 | 74 | 1012.3 |
| 20260510003837 | 56 | 259 | 1.0 | 5.0 | 0.00 | 0.00 | 0.00 | 74 | 1012.4 |
| 20260510003331 | 56 | 270 | 1.0 | 3.0 | 0.00 | 0.00 | 0.00 | 73 | 1012.4 |
| 20260510002904 | 57 | 270 | 1.0 | 5.0 | 0.00 | 0.00 | 0.00 | 72 | 1012.4 |
| 20260510002358 | 57 | 249 | 2.0 | 5.0 | 0.00 | 0.00 | 0.00 | 72 | 1012.3 |
| 20260510001851 | 57 | 281 | 2.0 | 4.0 | 0.00 | 0.00 | 0.00 | 71 | 1012.2 |
| 20260509235851 | 59 | 231 | 2.0 | 7.0 | 0.00 | 0.00 | 0.00 | 69 | 1012.0 |
| 20260509235329 | 59 | 360 | 4.0 | 7.0 | 0.00 | 0.00 | 0.00 | 68 | 1011.9 |
| 20260509234820 | 59 | 256 | 3.0 | 8.0 | 0.00 | 0.00 | 0.00 | 68 | 1011.8 |
| 20260509234313 | 60 | 250 | 4.0 | 7.0 | 0.00 | 0.00 | 0.00 | 67 | 1011.8 |
| 20260509233341 | 60 | 276 | 3.0 | 8.0 | 0.00 | 0.00 | 0.00 | 65 | 1011.8 |
| 20260509232834 | 61 | 262 | 4.0 | 8.0 | 0.00 | 0.00 | 0.00 | 64 | 1011.8 |
| 20260509232326 | 61 | 275 | 3.0 | 9.0 | 0.00 | 0.00 | 0.00 | 64 | 1011.7 |
| 20260509231319 | 62 | 254 | 5.0 | 12.0 | 0.00 | 0.00 | 0.00 | 63 | 1011.6 |
| 20260509230853 | 62 | 234 | 7.0 | 12.0 | 0.00 | 0.00 | 0.00 | 63 | 1011.5 |
| 20260509230346 | 63 | 257 | 5.0 | 12.0 | 0.00 | 0.00 | 0.00 | 62 | 1011.4 |
| 20260509225839 | 63 | 293 | 7.0 | 12.0 | 0.00 | 0.00 | 0.00 | 61 | 1011.6 |
| 20260509224905 | 64 | 179 | 3.0 | 9.0 | 0.00 | 0.00 | 0.00 | 60 | 1011.6 |
| 20260509223833 | 64 | 274 | 3.0 | 8.0 | 0.00 | 0.00 | 0.00 | 61 | 1011.6 |
| 20260509223327 | 64 | 245 | 3.0 | 10.0 | 0.00 | 0.00 | 0.00 | 61 | 1011.7 |
| 20260509222338 | 63 | 215 | 4.0 | 11.0 | 0.00 | 0.00 | 0.00 | 60 | 1011.8 |
| 20260509221830 | 63 | 268 | 7.0 | 11.0 | 0.00 | 0.00 | 0.00 | 61 | 1011.8 |
| 20260509221324 | 63 | 238 | 5.0 | 12.0 | 0.00 | 0.00 | 0.00 | 61 | 1011.8 |
| 20260509220352 | 63 | 247 | 6.0 | 12.0 | 0.00 | 0.00 | 0.00 | 59 | 1011.8 |
| 20260509215844 | 64 | 221 | 6.0 | 12.0 | 0.00 | 0.00 | 0.00 | 60 | 1011.9 |
| 20260509215337 | 63 | 261 | 6.0 | 13.0 | 0.00 | 0.00 | 0.00 | 61 | 1011.9 |
| 20260509214814 | 63 | 208 | 8.0 | 13.0 | 0.00 | 0.00 | 0.00 | 59 | 1011.9 |
| 20260509214403 | 64 | 269 | 6.0 | 12.0 | 0.00 | 0.00 | 0.00 | 57 | 1011.8 |
| 20260509213355 | 64 | 203 | 3.0 | 10.0 | 0.00 | 0.00 | 0.00 | 59 | 1011.8 |
| 20260509212848 | 64 | 238 | 5.0 | 13.0 | 0.00 | 0.00 | 0.00 | 60 | 1011.8 |
| 20260509212341 | 63 | 243 | 6.0 | 11.0 | 0.00 | 0.00 | 0.00 | 60 | 1011.8 |
| 20260509211833 | 63 | 294 | 5.0 | 21.0 | 0.00 | 0.00 | 0.00 | 59 | 1011.7 |
| 20260509211327 | 63 | 291 | 8.0 | 21.0 | 0.00 | 0.00 | 0.00 | 57 | 1011.6 |
| 20260509210901 | 63 | 293 | 5.0 | 9.0 | 0.00 | 0.00 | 0.00 | 59 | 1011.6 |
| 20260509210353 | 63 | 203 | 4.0 | 18.0 | 0.00 | 0.00 | 0.00 | 61 | 1011.5 |
| 20260509205830 | 63 | 278 | 6.0 | 18.0 | 0.00 | 0.00 | 0.00 | 59 | 1011.6 |
| 20260509205404 | 64 | 303 | 5.0 | 11.0 | 0.00 | 0.00 | 0.00 | 60 | 1011.4 |
| 20260509204855 | 63 | 335 | 5.0 | 13.0 | 0.00 | 0.00 | 0.00 | 61 | 1011.6 |
| 20260509204348 | 63 | 250 | 7.0 | 16.0 | 0.00 | 0.00 | 0.00 | 60 | 1011.5 |
| 20260509203840 | 63 | 229 | 9.0 | 16.0 | 0.00 | 0.00 | 0.00 | 59 | 1011.3 |
| 20260509203333 | 63 | 213 | 8.0 | 14.0 | 0.00 | 0.00 | 0.00 | 61 | 1011.3 |
| 20260509202827 | 63 | 252 | 6.0 | 11.0 | 0.00 | 0.00 | 0.00 | 61 | 1011.2 |
| 20260509202400 | 62 | 243 | 5.0 | 11.0 | 0.00 | 0.00 | 0.00 | 59 | 1011.2 |
| 20260509201837 | 62 | 257 | 7.0 | 13.0 | 0.00 | 0.00 | 0.00 | 59 | 1011.3 |
| 20260509201329 | 62 | 214 | 6.0 | 13.0 | 0.00 | 0.00 | 0.00 | 55 | 1011.1 |
| 20260509200903 | 63 | 284 | 8.0 | 13.0 | 0.00 | 0.00 | 0.00 | 56 | 1011.1 |
| 20260509195830 | 64 | 250 | 5.0 | 10.0 | 0.00 | 0.00 | 0.00 | 60 | 1011.0 |
| 20260509195324 | 64 | 293 | 6.0 | 13.0 | 0.00 | 0.00 | 0.00 | 56 | 1011.0 |
| 20260509194816 | 63 | 297 | 7.0 | 13.0 | 0.00 | 0.00 | 0.00 | 59 | 1011.0 |
| 20260509194408 | 63 | 268 | 6.0 | 11.0 | 0.00 | 0.00 | 0.00 | 62 | 1011.0 |
| 20260509193846 | 62 | 184 | 7.0 | 12.0 | 0.00 | 0.00 | 0.00 | 58 | 1010.9 |
| 20260509191845 | 64 | 295 | 6.0 | 11.0 | 0.00 | 0.00 | 0.00 | 56 | 1011.0 |
| 20260509191337 | 64 | 210 | 5.0 | 11.0 | 0.00 | 0.00 | 0.00 | 58 | 1010.9 |
| 20260509190829 | 64 | 266 | 7.0 | 12.0 | 0.00 | 0.00 | 0.00 | 56 | 1010.9 |
| 20260509190402 | 64 | 228 | 5.0 | 10.0 | 0.00 | 0.00 | 0.00 | 60 | 1010.9 |
| 20260509185855 | 64 | 218 | 3.0 | 11.0 | 0.00 | 0.00 | 0.00 | 58 | 1010.9 |
| 20260509184846 | 63 | 252 | 5.0 | 11.0 | 0.00 | 0.00 | 0.00 | 57 | 1010.9 |
| 20260509184338 | 64 | 286 | 5.0 | 13.0 | 0.00 | 0.00 | 0.00 | 56 | 1011.0 |
| 20260509183831 | 64 | 319 | 8.0 | 13.0 | 0.00 | 0.00 | 0.00 | 55 | 1011.1 |
| 20260509182859 | 64 | 249 | 5.0 | 12.0 | 0.00 | 0.00 | 0.00 | 61 | 1011.0 |
| 20260509182352 | 64 | 284 | 7.0 | 12.0 | 0.00 | 0.00 | 0.00 | 59 | 1011.0 |
| 20260509181846 | 64 | 276 | 7.0 | 12.0 | 0.00 | 0.00 | 0.00 | 61 | 1011.1 |
| 20260509181322 | 64 | 269 | 6.0 | 11.0 | 0.00 | 0.00 | 0.00 | 63 | 1011.0 |
| 20260509180856 | 63 | 204 | 5.0 | 11.0 | 0.00 | 0.00 | 0.00 | 60 | 1011.0 |
| 20260509180349 | 63 | 222 | 6.0 | 11.0 | 0.00 | 0.00 | 0.00 | 66 | 1011.0 |
| 20260509175838 | 63 | 230 | 5.0 | 12.0 | 0.00 | 0.00 | 0.00 | 64 | 1010.9 |
| 20260509175329 | 63 | 295 | 5.0 | 12.0 | 0.00 | 0.00 | 0.00 | 61 | 1011.0 |
| 20260509174355 | 63 | 254 | 4.0 | 12.0 | 0.00 | 0.00 | 0.00 | 66 | 1010.9 |
| 20260509173848 | 62 | 267 | 6.0 | 12.0 | 0.00 | 0.00 | 0.00 | 63 | 1011.0 |
| 20260509173341 | 62 | 290 | 8.0 | 13.0 | 0.00 | 0.00 | 0.00 | 61 | 1011.2 |
| 20260509172819 | 62 | 212 | 6.0 | 10.0 | 0.00 | 0.00 | 0.00 | 61 | 1011.2 |
| 20260509172352 | 62 | 311 | 4.0 | 7.0 | 0.00 | 0.00 | 0.00 | 67 | 1011.1 |
| 20260509171846 | 62 | 201 | 3.0 | 11.0 | 0.00 | 0.00 | 0.00 | 66 | 1011.2 |
| 20260509171338 | 62 | 228 | 6.0 | 14.0 | 0.00 | 0.00 | 0.00 | 65 | 1011.3 |
| 20260509170832 | 62 | 263 | 6.0 | 14.0 | 0.00 | 0.00 | 0.00 | 63 | 1011.3 |
| 20260509170325 | 63 | 247 | 5.0 | 9.0 | 0.00 | 0.00 | 0.00 | 65 | 1011.3 |
| 20260509165817 | 62 | 201 | 4.0 | 10.0 | 0.00 | 0.00 | 0.00 | 66 | 1011.4 |
| 20260509164829 | 62 | 221 | 6.0 | 14.0 | 0.00 | 0.00 | 0.00 | 64 | 1011.5 |
| 20260509164401 | 62 | 229 | 3.0 | 14.0 | 0.00 | 0.00 | 0.00 | 66 | 1011.4 |
| 20260509163854 | 62 | 310 | 6.0 | 10.0 | 0.00 | 0.00 | 0.00 | 66 | 1011.4 |
| 20260509163347 | 62 | 347 | 3.0 | 7.0 | 0.00 | 0.00 | 0.00 | 71 | 1011.3 |
| 20260509162839 | 61 | 245 | 3.0 | 8.0 | 0.00 | 0.00 | 0.00 | 65 | 1011.3 |
| 20260509162331 | 62 | 283 | 6.0 | 11.0 | 0.00 | 0.00 | 0.00 | 63 | 1011.4 |
| 20260509161905 | 61 | 265 | 6.0 | 12.0 | 0.00 | 0.00 | 0.00 | 66 | 1011.4 |
| 20260509161359 | 61 | 223 | 6.0 | 14.0 | 0.00 | 0.00 | 0.00 | 64 | 1011.6 |
| 20260509160836 | 61 | 253 | 4.0 | 14.0 | 0.00 | 0.00 | 0.00 | 67 | 1011.5 |
| 20260509160328 | 61 | 250 | 7.0 | 15.0 | 0.00 | 0.00 | 0.00 | 67 | 1011.6 |
| 20260509155902 | 61 | 245 | 6.0 | 15.0 | 0.00 | 0.00 | 0.00 | 67 | 1011.4 |
| 20260509155355 | 61 | 246 | 6.0 | 14.0 | 0.00 | 0.00 | 0.00 | 67 | 1011.4 |
| 20260509154847 | 61 | 288 | 4.0 | 11.0 | 0.00 | 0.00 | 0.00 | 72 | 1011.2 |
| 20260509154337 | 60 | 295 | 7.0 | 12.0 | 0.00 | 0.00 | 0.00 | 68 | 1011.5 |
| 20260509153831 | 60 | 266 | 7.0 | 12.0 | 0.00 | 0.00 | 0.00 | 69 | 1011.5 |
| 20260509153403 | 60 | 279 | 5.0 | 11.0 | 0.00 | 0.00 | 0.00 | 70 | 1011.4 |
| 20260509152841 | 59 | 181 | 6.0 | 11.0 | 0.00 | 0.00 | 0.00 | 72 | 1011.6 |
| 20260509152333 | 58 | 276 | 6.0 | 17.0 | 0.00 | 0.00 | 0.00 | 72 | 1011.6 |
| 20260509151826 | 59 | 245 | 10.0 | 17.0 | 0.00 | 0.00 | 0.00 | 70 | 1011.7 |
| 20260509150329 | 58 | 227 | 6.0 | 11.0 | 0.00 | 0.00 | 0.00 | 72 | 1011.5 |
| 20260509145406 | 58 | 258 | 7.0 | 14.0 | 0.00 | 0.00 | 0.00 | 70 | 1011.8 |
| 20260509144858 | 59 | 241 | 4.0 | 12.0 | 0.00 | 0.00 | 0.00 | 70 | 1011.6 |
| 20260509144333 | 59 | 231 | 6.0 | 12.0 | 0.00 | 0.00 | 0.00 | 70 | 1011.6 |
| 20260509143342 | 58 | 236 | 4.0 | 8.0 | 0.00 | 0.00 | 0.00 | 71 | 1011.4 |
| 20260509142835 | 58 | 236 | 3.0 | 12.0 | 0.00 | 0.00 | 0.00 | 71 | 1011.4 |